Hourly Data Report for October 29, 2016

All times are specified in Local Standard Time (LST). Add 1 hour to adjust for Daylight Saving Time where and when it is observed.

ST LEONARD CS
NEW BRUNSWICK

47°09'28.050" N
67°49'55.014" W
245.00 m
810I001
71019
WIY

Download Data

Hourly Data (October 2016)
Hourly Data Report for October 29, 2016
Temp Definition
°C
Dew Point Temp Definition
°C
Rel Hum Definition
%
Wind Dir Definition
10's deg

Wind Spd Definition
km/h
Visibility Definition
km
Stn Press Definition
kPa
Hmdx Definition


Wind Chill Definition


Weather Definition


TIME
00:00 -1.7 -2.3 96 3 6   99.10   -4 LegendNANA
01:00 -2.2 -2.5 97 1 6   99.11   -5 LegendNANA
02:00 -1.8 -2.1 98 2 9   99.09   -5 LegendNANA
03:00 -2.2 -2.3 99 3 10   99.06   -6 LegendNANA
04:00 -1.3 -1.4 100 2 9   99.03   -5 LegendNANA
05:00 -0.6 -0.7 99 3 7   98.94   -3 LegendNANA
06:00 -0.3 -0.4 99 1 9   98.87   -3 LegendNANA
07:00 -0.3 -0.5 99 33 8   98.88   -3 LegendNANA
08:00 0.1 0.0 99 36 7   98.84     LegendNANA
09:00 1.4 1.1 99 4 6   98.75     LegendNANA
10:00 2.7 1.9 95 5 6   98.70     LegendNANA
11:00 4.4 2.2 86 9 2   98.61     LegendNANA
12:00 4.9 2.1 83 12 6   98.49     LegendNANA
13:00 5.3 2.3 81 11 7   98.38     LegendNANA
14:00 5.4 2.5 82 6 4   98.31     LegendNANA
15:00 5.6 3.1 84 7 5   98.20     LegendNANA
16:00 5.4 3.8 89 10 4   98.12     LegendNANA
17:00 5.1 4.0 93 10 2   98.01     LegendNANA
18:00 5.0 4.0 93 13 5   97.92     LegendNANA
19:00 4.9 4.0 94 11 9   97.80     LegendNANA
20:00 4.6 4.0 96 10 4   97.78     LegendNANA
21:00 4.5 4.0 97 2 4   97.79     LegendNANA
22:00 4.4 4.1 98 7 5   97.72     LegendNANA
23:00 4.4 4.0 98 7 2   97.68     LegendNANA

Notes on Data Quality.

Legend

  • E = Estimated
  • M = Missing
  • NA = Not Available
  • ‡ = Partner data that is not subject to review by the National Climate Archives
Date modified: